Time,TemperatureF,DewpointF,PressureIn,WindDirection,WindDirectionDegrees,WindSpeedMPH,WindSpeedGustMPH,Humidity,HourlyPrecipIn,Conditions,Clouds,dailyrainin,SolarRadiationWatts/m^2,SoftwareType,DateUTC
2013-05-26 00:01:00,67.1,57.4,30.12,South,173,0.0,0.0,71,0.00,,,0.00,0.00,VWS V14.01,2013-05-26 05:01:00,
2013-05-26 00:06:00,66.8,57.5,30.12,South,172,0.0,0.0,72,0.00,,,0.00,0.00,VWS V14.01,2013-05-26 05:06:00,
2013-05-26 00:11:00,66.4,57.5,30.13,South,172,0.0,0.0,73,0.00,,,0.00,0.00,VWS V14.01,2013-05-26 05:11:00,
2013-05-26 00:16:00,66.2,57.7,30.13,South,173,0.0,0.0,74,0.00,,,0.00,0.00,VWS V14.01,2013-05-26 05:16:00,
2013-05-26 00:21:00,65.9,57.4,30.13,South,173,0.0,0.0,74,0.00,,,0.00,0.00,VWS V14.01,2013-05-26 05:21:00,
2013-05-26 00:26:00,65.6,57.5,30.13,South,173,0.0,0.0,75,0.00,,,0.00,0.00,VWS V14.01,2013-05-26 05:26:00,
2013-05-26 00:31:00,65.4,57.3,30.13,South,172,0.0,0.0,75,0.00,,,0.00,0.00,VWS V14.01,2013-05-26 05:31:00,
2013-05-26 00:36:00,65.2,57.5,30.13,South,173,0.0,0.0,76,0.00,,,0.00,0.00,VWS V14.01,2013-05-26 05:36:00,
2013-05-26 00:41:00,65.1,57.4,30.13,South,173,0.0,0.0,76,0.00,,,0.00,0.00,VWS V14.01,2013-05-26 05:41:00,
2013-05-26 00:46:00,64.9,57.5,30.13,South,172,0.0,0.0,77,0.00,,,0.00,0.00,VWS V14.01,2013-05-26 05:46:00,
2013-05-26 00:51:00,64.7,57.3,30.13,South,173,0.0,0.0,77,0.00,,,0.00,0.00,VWS V14.01,2013-05-26 05:51:00,
2013-05-26 00:56:00,64.5,57.5,30.13,South,173,0.0,0.0,78,0.00,,,0.00,0.00,VWS V14.01,2013-05-26 05:56:00,
2013-05-26 01:01:00,64.4,57.4,30.13,South,173,0.0,0.0,78,0.00,,,0.00,0.00,VWS V14.01,2013-05-26 06:01:00,
2013-05-26 01:06:00,64.3,57.7,30.13,South,172,0.0,0.0,79,0.00,,,0.00,0.00,VWS V14.01,2013-05-26 06:06:00,
2013-05-26 01:11:00,64.1,57.8,30.13,South,173,0.0,0.0,80,0.00,,,0.00,0.00,VWS V14.01,2013-05-26 06:11:00,
2013-05-26 01:16:00,63.9,57.6,30.13,South,173,0.0,0.0,80,0.00,,,0.00,0.00,VWS V14.01,2013-05-26 06:16:00,
2013-05-26 01:21:00,63.6,57.3,30.12,South,173,0.0,0.0,80,0.00,,,0.00,0.00,VWS V14.01,2013-05-26 06:21:00,
2013-05-26 01:26:00,63.4,57.5,30.12,South,173,0.0,0.0,81,0.00,,,0.00,0.00,VWS V14.01,2013-05-26 06:26:00,
2013-05-26 01:31:00,63.2,57.3,30.12,South,172,0.0,0.0,81,0.00,,,0.00,0.00,VWS V14.01,2013-05-26 06:31:00,
2013-05-26 01:36:00,63.1,57.2,30.12,South,173,0.0,0.0,81,0.00,,,0.00,0.00,VWS V14.01,2013-05-26 06:36:00,
2013-05-26 01:41:00,62.9,57.0,30.12,South,173,0.0,0.0,81,0.00,,,0.00,0.00,VWS V14.01,2013-05-26 06:41:00,
2013-05-26 01:46:00,62.8,57.2,30.12,South,172,0.0,0.0,82,0.00,,,0.00,0.00,VWS V14.01,2013-05-26 06:46:00,
2013-05-26 01:51:00,62.6,57.0,30.13,South,172,0.0,0.0,82,0.00,,,0.00,0.00,VWS V14.01,2013-05-26 06:51:00,
2013-05-26 01:56:00,62.4,56.8,30.13,South,173,0.0,0.0,82,0.00,,,0.00,0.00,VWS V14.01,2013-05-26 06:56:00,
2013-05-26 02:01:00,62.3,56.7,30.13,South,173,0.0,0.0,82,0.00,,,0.00,0.00,VWS V14.01,2013-05-26 07:01:00,
2013-05-26 02:06:00,62.2,56.6,30.13,South,173,0.0,0.0,82,0.00,,,0.00,0.00,VWS V14.01,2013-05-26 07:06:00,
2013-05-26 02:11:00,62.2,56.6,30.13,South,172,0.0,0.0,82,0.00,,,0.00,0.00,VWS V14.01,2013-05-26 07:11:00,
2013-05-26 02:16:00,62.1,56.5,30.13,South,173,0.0,0.0,82,0.00,,,0.00,0.00,VWS V14.01,2013-05-26 07:16:00,
2013-05-26 02:21:00,62.0,56.8,30.13,South,173,0.0,0.0,83,0.00,,,0.00,0.00,VWS V14.01,2013-05-26 07:21:00,
2013-05-26 02:26:00,61.9,56.7,30.13,South,173,0.0,0.0,83,0.00,,,0.00,0.00,VWS V14.01,2013-05-26 07:26:00,
2013-05-26 02:31:00,61.9,56.7,30.14,South,173,0.0,0.0,83,0.00,,,0.00,0.00,VWS V14.01,2013-05-26 07:31:00,
2013-05-26 02:36:00,61.8,56.9,30.14,South,173,0.0,0.0,84,0.00,,,0.00,0.00,VWS V14.01,2013-05-26 07:36:00,
2013-05-26 02:41:00,61.7,56.8,30.13,South,173,0.0,0.0,84,0.00,,,0.00,0.00,VWS V14.01,2013-05-26 07:41:00,
2013-05-26 02:46:00,61.5,56.6,30.13,South,172,0.0,0.0,84,0.00,,,0.00,0.00,VWS V14.01,2013-05-26 07:46:00,
2013-05-26 02:51:00,61.4,56.9,30.14,South,172,0.0,0.0,85,0.00,,,0.00,0.00,VWS V14.01,2013-05-26 07:51:00,
2013-05-26 02:56:00,61.3,56.8,30.13,South,173,0.0,0.0,85,0.00,,,0.00,0.00,VWS V14.01,2013-05-26 07:56:00,
2013-05-26 03:01:00,61.2,56.7,30.13,South,173,0.0,0.0,85,0.00,,,0.00,0.00,VWS V14.01,2013-05-26 08:01:00,
2013-05-26 03:06:00,61.1,56.6,30.13,South,172,0.0,0.0,85,0.00,,,0.00,0.00,VWS V14.01,2013-05-26 08:06:00,
2013-05-26 03:11:00,60.9,56.7,30.13,South,173,0.0,0.0,86,0.00,,,0.00,0.00,VWS V14.01,2013-05-26 08:11:00,
2013-05-26 03:16:00,60.8,56.6,30.13,South,172,0.0,0.0,86,0.00,,,0.00,0.00,VWS V14.01,2013-05-26 08:16:00,
2013-05-26 03:21:00,60.6,56.7,30.13,South,173,0.0,0.0,87,0.00,,,0.00,0.00,VWS V14.01,2013-05-26 08:21:00,
2013-05-26 03:26:00,60.4,56.5,30.13,South,172,0.0,0.0,87,0.00,,,0.00,0.00,VWS V14.01,2013-05-26 08:26:00,
2013-05-26 03:31:00,60.3,56.4,30.13,South,172,0.0,0.0,87,0.00,,,0.00,0.00,VWS V14.01,2013-05-26 08:31:00,
2013-05-26 03:36:00,60.2,56.3,30.13,South,172,0.0,0.0,87,0.00,,,0.00,0.00,VWS V14.01,2013-05-26 08:36:00,
2013-05-26 03:41:00,60.2,56.3,30.13,South,173,0.0,0.0,87,0.00,,,0.00,0.00,VWS V14.01,2013-05-26 08:41:00,
2013-05-26 03:46:00,60.1,56.2,30.13,South,173,0.0,0.0,87,0.00,,,0.00,0.00,VWS V14.01,2013-05-26 08:46:00,
2013-05-26 03:51:00,60.1,56.2,30.14,South,172,0.0,0.0,87,0.00,,,0.00,0.00,VWS V14.01,2013-05-26 08:51:00,
2013-05-26 03:56:00,60.2,56.0,30.14,South,172,0.0,0.0,86,0.00,,,0.00,0.00,VWS V14.01,2013-05-26 08:56:00,
2013-05-26 04:01:00,60.2,56.0,30.14,South,173,0.0,0.0,86,0.00,,,0.00,0.00,VWS V14.01,2013-05-26 09:01:00,
2013-05-26 04:06:00,60.2,56.0,30.14,South,173,0.0,0.0,86,0.00,,,0.00,0.00,VWS V14.01,2013-05-26 09:06:00,
2013-05-26 04:11:00,60.0,55.8,30.13,South,172,0.0,0.0,86,0.00,,,0.00,0.00,VWS V14.01,2013-05-26 09:11:00,
2013-05-26 04:16:00,60.0,55.8,30.13,South,173,0.0,0.0,86,0.00,,,0.00,0.00,VWS V14.01,2013-05-26 09:16:00,
2013-05-26 04:21:00,59.9,55.7,30.13,South,173,0.0,0.0,86,0.00,,,0.00,0.00,VWS V14.01,2013-05-26 09:21:00,
2013-05-26 04:26:00,59.8,55.6,30.13,South,172,0.0,0.0,86,0.00,,,0.00,0.00,VWS V14.01,2013-05-26 09:26:00,
2013-05-26 04:31:00,59.7,55.5,30.13,South,172,0.0,0.0,86,0.00,,,0.00,0.00,VWS V14.01,2013-05-26 09:31:00,
2013-05-26 04:36:00,59.5,55.3,30.13,South,173,0.0,0.0,86,0.00,,,0.00,0.00,VWS V14.01,2013-05-26 09:36:00,
2013-05-26 04:41:00,59.3,55.1,30.13,South,173,0.0,0.0,86,0.00,,,0.00,0.00,VWS V14.01,2013-05-26 09:41:00,
2013-05-26 04:46:00,59.3,55.1,30.13,South,173,0.0,0.0,86,0.00,,,0.00,0.00,VWS V14.01,2013-05-26 09:46:00,
2013-05-26 04:51:00,59.1,54.9,30.13,South,172,0.0,0.0,86,0.00,,,0.00,0.00,VWS V14.01,2013-05-26 09:51:00,
2013-05-26 04:56:00,59.0,54.8,30.13,South,172,0.0,0.0,86,0.00,,,0.00,0.00,VWS V14.01,2013-05-26 09:56:00,
2013-05-26 05:01:00,59.0,54.8,30.13,South,173,0.0,0.0,86,0.00,,,0.00,0.00,VWS V14.01,2013-05-26 10:01:00,
2013-05-26 05:06:00,59.0,54.8,30.13,South,173,0.0,0.0,86,0.00,,,0.00,0.00,VWS V14.01,2013-05-26 10:06:00,
2013-05-26 05:11:00,59.0,55.1,30.13,South,173,0.0,0.0,87,0.00,,,0.00,0.00,VWS V14.01,2013-05-26 10:11:00,
2013-05-26 05:16:00,58.7,54.8,30.13,South,172,0.0,0.0,87,0.00,,,0.00,0.00,VWS V14.01,2013-05-26 10:16:00,
2013-05-26 05:21:00,58.5,54.7,30.13,South,173,0.0,0.0,87,0.00,,,0.00,0.00,VWS V14.01,2013-05-26 10:21:00,
2013-05-26 05:26:00,58.4,54.5,30.13,South,173,0.0,0.0,87,0.00,,,0.00,0.00,VWS V14.01,2013-05-26 10:26:00,
2013-05-26 05:31:00,58.3,54.5,30.13,South,172,0.0,0.0,87,0.00,,,0.00,0.00,VWS V14.01,2013-05-26 10:31:00,
2013-05-26 05:36:00,58.2,54.4,30.13,South,172,0.0,0.0,87,0.00,,,0.00,0.00,VWS V14.01,2013-05-26 10:36:00,
2013-05-26 05:41:00,58.1,54.3,30.13,South,172,0.0,0.0,87,0.00,,,0.00,0.00,VWS V14.01,2013-05-26 10:41:00,
2013-05-26 05:46:00,58.1,54.3,30.13,South,173,0.0,0.0,87,0.00,,,0.00,5.00,VWS V14.01,2013-05-26 10:46:00,
2013-05-26 05:51:00,58.2,54.4,30.13,South,173,0.0,0.0,87,0.00,,,0.00,9.00,VWS V14.01,2013-05-26 10:51:00,
2013-05-26 05:56:00,58.3,54.5,30.14,South,172,0.0,0.0,87,0.00,,,0.00,12.00,VWS V14.01,2013-05-26 10:56:00,
2013-05-26 06:01:00,58.5,54.7,30.14,South,172,0.0,0.0,87,0.00,,,0.00,16.00,VWS V14.01,2013-05-26 11:01:00,
2013-05-26 06:06:00,58.9,54.7,30.14,South,173,0.0,0.0,86,0.00,,,0.00,21.00,VWS V14.01,2013-05-26 11:06:00,
2013-05-26 06:11:00,59.0,54.5,30.15,South,173,0.0,0.0,85,0.00,,,0.00,32.00,VWS V14.01,2013-05-26 11:11:00,
2013-05-26 06:16:00,59.4,54.9,30.15,South,173,0.0,0.0,85,0.00,,,0.00,44.00,VWS V14.01,2013-05-26 11:16:00,
2013-05-26 06:21:00,59.9,55.4,30.15,South,172,0.0,0.0,85,0.00,,,0.00,58.00,VWS V14.01,2013-05-26 11:21:00,
2013-05-26 06:26:00,60.5,56.0,30.15,South,173,0.0,0.0,85,0.00,,,0.00,74.00,VWS V14.01,2013-05-26 11:26:00,
2013-05-26 06:31:00,61.1,55.9,30.15,South,173,0.0,0.0,83,0.00,,,0.00,88.00,VWS V14.01,2013-05-26 11:31:00,
2013-05-26 06:36:00,61.4,55.9,30.15,South,173,0.0,0.0,82,0.00,,,0.00,102.00,VWS V14.01,2013-05-26 11:36:00,
2013-05-26 06:41:00,61.7,55.5,30.15,South,173,0.0,0.0,80,0.00,,,0.00,123.00,VWS V14.01,2013-05-26 11:41:00,
2013-05-26 06:46:00,62.1,55.5,30.16,South,173,0.0,0.0,79,0.00,,,0.00,118.00,VWS V14.01,2013-05-26 11:46:00,
2013-05-26 06:51:00,62.4,55.5,30.16,South,173,0.0,0.0,78,0.00,,,0.00,134.00,VWS V14.01,2013-05-26 11:51:00,
2013-05-26 06:56:00,62.8,56.2,30.16,South,173,0.0,1.0,79,0.00,,,0.00,146.00,VWS V14.01,2013-05-26 11:56:00,
2013-05-26 07:01:00,63.2,56.6,30.16,South,172,0.0,0.0,79,0.00,,,0.00,195.00,VWS V14.01,2013-05-26 12:01:00,
2013-05-26 07:06:00,63.6,56.3,30.16,South,172,0.0,2.0,77,0.00,,,0.00,211.00,VWS V14.01,2013-05-26 12:06:00,
2013-05-26 07:11:00,64.2,56.8,30.16,South,173,0.0,0.0,77,0.00,,,0.00,216.00,VWS V14.01,2013-05-26 12:11:00,
2013-05-26 07:16:00,64.9,56.8,30.16,South,172,0.0,2.0,75,0.00,,,0.00,192.00,VWS V14.01,2013-05-26 12:16:00,
2013-05-26 07:21:00,65.3,56.8,30.16,South,173,0.0,1.0,74,0.00,,,0.00,160.00,VWS V14.01,2013-05-26 12:21:00,
2013-05-26 07:26:00,65.4,56.5,30.16,South,172,0.0,2.0,73,0.00,,,0.00,153.00,VWS V14.01,2013-05-26 12:26:00,
2013-05-26 07:31:00,65.5,56.6,30.16,South,173,2.0,2.0,73,0.00,,,0.00,160.00,VWS V14.01,2013-05-26 12:31:00,
2013-05-26 07:36:00,65.7,56.8,30.16,South,173,1.0,3.0,73,0.00,,,0.00,209.00,VWS V14.01,2013-05-26 12:36:00,
2013-05-26 07:41:00,66.1,57.6,30.16,South,172,0.0,0.0,74,0.00,,,0.00,272.00,VWS V14.01,2013-05-26 12:41:00,
2013-05-26 07:46:00,66.8,57.5,30.17,South,173,0.0,3.0,72,0.00,,,0.00,302.00,VWS V14.01,2013-05-26 12:46:00,
2013-05-26 07:51:00,67.9,58.5,30.16,South,172,0.0,0.0,72,0.00,,,0.00,334.00,VWS V14.01,2013-05-26 12:51:00,
2013-05-26 07:56:00,69.1,58.9,30.17,South,173,0.0,1.0,70,0.00,,,0.00,334.00,VWS V14.01,2013-05-26 12:56:00,
2013-05-26 08:01:00,69.9,58.5,30.16,South,173,0.0,1.0,67,0.00,,,0.00,366.00,VWS V14.01,2013-05-26 13:01:00,
2013-05-26 08:06:00,70.7,58.8,30.16,South,172,0.0,2.0,66,0.00,,,0.00,388.00,VWS V14.01,2013-05-26 13:06:00,
2013-05-26 08:11:00,71.2,58.8,30.16,South,173,0.0,1.0,65,0.00,,,0.00,425.00,VWS V14.01,2013-05-26 13:11:00,
2013-05-26 08:16:00,71.6,58.8,30.16,SSW,198,3.0,5.0,64,0.00,,,0.00,441.00,VWS V14.01,2013-05-26 13:16:00,
2013-05-26 08:21:00,71.1,57.9,30.16,South,176,4.0,6.0,63,0.00,,,0.00,457.00,VWS V14.01,2013-05-26 13:21:00,
2013-05-26 08:26:00,70.7,58.4,30.16,SSW,213,0.0,6.0,65,0.00,,,0.00,471.00,VWS V14.01,2013-05-26 13:26:00,
2013-05-26 08:31:00,71.3,58.9,30.16,SW,215,1.0,3.0,65,0.00,,,0.00,403.00,VWS V14.01,2013-05-26 13:31:00,
2013-05-26 08:36:00,71.8,59.0,30.16,SSW,197,0.0,6.0,64,0.00,,,0.00,422.00,VWS V14.01,2013-05-26 13:36:00,
2013-05-26 08:41:00,71.9,59.5,30.16,SSW,194,1.0,3.0,65,0.00,,,0.00,494.00,VWS V14.01,2013-05-26 13:41:00,
2013-05-26 08:46:00,72.1,59.7,30.17,SSW,194,0.0,3.0,65,0.00,,,0.00,503.00,VWS V14.01,2013-05-26 13:46:00,
2013-05-26 08:51:00,72.7,59.8,30.17,SSW,194,0.0,4.0,64,0.00,,,0.00,519.00,VWS V14.01,2013-05-26 13:51:00,
2013-05-26 08:56:00,73.2,59.9,30.17,South,188,1.0,4.0,63,0.00,,,0.00,536.00,VWS V14.01,2013-05-26 13:56:00,
2013-05-26 09:01:00,73.7,60.3,30.17,South,190,0.0,3.0,63,0.00,,,0.00,585.00,VWS V14.01,2013-05-26 14:01:00,
2013-05-26 09:06:00,74.3,60.0,30.17,South,176,2.0,6.0,61,0.00,,,0.00,615.00,VWS V14.01,2013-05-26 14:06:00,
2013-05-26 09:11:00,74.2,60.4,30.17,SSW,211,1.0,5.0,62,0.00,,,0.00,633.00,VWS V14.01,2013-05-26 14:11:00,
2013-05-26 09:16:00,74.6,60.7,30.17,South,180,0.0,6.0,62,0.00,,,0.00,654.00,VWS V14.01,2013-05-26 14:16:00,
2013-05-26 09:21:00,75.5,61.1,30.17,South,182,0.0,5.0,61,0.00,,,0.00,636.00,VWS V14.01,2013-05-26 14:21:00,
2013-05-26 09:26:00,75.8,60.5,30.17,South,180,1.0,7.0,59,0.00,,,0.00,659.00,VWS V14.01,2013-05-26 14:26:00,
2013-05-26 09:31:00,76.5,61.6,30.17,SW,223,2.0,2.0,60,0.00,,,0.00,737.00,VWS V14.01,2013-05-26 14:31:00,
2013-05-26 09:36:00,77.1,60.2,30.17,SSW,210,5.0,6.0,56,0.00,,,0.00,443.00,VWS V14.01,2013-05-26 14:36:00,
2013-05-26 09:41:00,77.1,60.2,30.17,SW,219,2.0,3.0,56,0.00,,,0.00,710.00,VWS V14.01,2013-05-26 14:41:00,
2013-05-26 09:46:00,77.6,60.2,30.17,SSE,159,2.0,6.0,55,0.00,,,0.00,714.00,VWS V14.01,2013-05-26 14:46:00,
2013-05-26 09:51:00,77.6,60.2,30.17,SSW,203,1.0,5.0,55,0.00,,,0.00,754.00,VWS V14.01,2013-05-26 14:51:00,
2013-05-26 09:56:00,77.8,60.4,30.17,SW,232,0.0,6.0,55,0.00,,,0.00,768.00,VWS V14.01,2013-05-26 14:56:00,
2013-05-26 10:01:00,78.0,60.5,30.17,South,176,5.0,5.0,55,0.00,,,0.00,780.00,VWS V14.01,2013-05-26 15:01:00,
2013-05-26 10:06:00,78.7,60.2,30.17,SSW,209,2.0,7.0,53,0.00,,,0.00,784.00,VWS V14.01,2013-05-26 15:06:00,
2013-05-26 10:11:00,79.0,61.0,30.16,SSE,168,5.0,5.0,54,0.00,,,0.00,800.00,VWS V14.01,2013-05-26 15:11:00,
2013-05-26 10:16:00,78.7,60.2,30.16,South,171,1.0,8.0,53,0.00,,,0.00,807.00,VWS V14.01,2013-05-26 15:16:00,
2013-05-26 10:21:00,78.9,60.3,30.16,South,180,4.0,6.0,53,0.00,,,0.00,819.00,VWS V14.01,2013-05-26 15:21:00,
2013-05-26 10:26:00,79.4,61.3,30.16,SSW,205,0.0,6.0,54,0.00,,,0.00,831.00,VWS V14.01,2013-05-26 15:26:00,
2013-05-26 10:31:00,79.5,60.3,30.16,South,184,0.0,3.0,52,0.00,,,0.00,842.00,VWS V14.01,2013-05-26 15:31:00,
2013-05-26 10:36:00,79.3,59.6,30.16,SSW,213,4.0,8.0,51,0.00,,,0.00,765.00,VWS V14.01,2013-05-26 15:36:00,
2013-05-26 10:41:00,79.2,60.1,30.16,SSE,165,0.0,6.0,52,0.00,,,0.00,868.00,VWS V14.01,2013-05-26 15:41:00,
2013-05-26 10:46:00,80.0,60.8,30.16,South,182,2.0,6.0,52,0.00,,,0.00,875.00,VWS V14.01,2013-05-26 15:46:00,
2013-05-26 10:51:00,80.6,60.3,30.16,SW,223,0.0,5.0,50,0.00,,,0.00,888.00,VWS V14.01,2013-05-26 15:51:00,
2013-05-26 10:56:00,81.1,60.7,30.16,SSE,167,4.0,7.0,50,0.00,,,0.00,896.00,VWS V14.01,2013-05-26 15:56:00,
2013-05-26 11:01:00,80.8,61.0,30.16,South,172,1.0,1.0,51,0.00,,,0.00,905.00,VWS V14.01,2013-05-26 16:01:00,
2013-05-26 11:06:00,80.5,59.0,30.16,SSE,160,5.0,8.0,48,0.00,,,0.00,916.00,VWS V14.01,2013-05-26 16:06:00,
2013-05-26 11:11:00,80.7,59.2,30.16,SW,236,0.0,2.0,48,0.00,,,0.00,926.00,VWS V14.01,2013-05-26 16:11:00,
2013-05-26 11:16:00,80.7,59.8,30.16,SE,132,3.0,5.0,49,0.00,,,0.00,935.00,VWS V14.01,2013-05-26 16:16:00,
2013-05-26 11:21:00,80.5,60.7,30.16,ESE,116,0.0,4.0,51,0.00,,,0.00,942.00,VWS V14.01,2013-05-26 16:21:00,
2013-05-26 11:26:00,81.2,61.4,30.16,East,99,3.0,7.0,51,0.00,,,0.00,949.00,VWS V14.01,2013-05-26 16:26:00,
2013-05-26 11:31:00,81.4,59.8,30.16,SE,132,2.0,2.0,48,0.00,,,0.00,954.00,VWS V14.01,2013-05-26 16:31:00,
2013-05-26 11:36:00,81.1,59.6,30.16,SSE,160,0.0,8.0,48,0.00,,,0.00,965.00,VWS V14.01,2013-05-26 16:36:00,
2013-05-26 11:41:00,81.5,60.5,30.16,SSE,161,1.0,1.0,49,0.00,,,0.00,972.00,VWS V14.01,2013-05-26 16:41:00,
2013-05-26 11:46:00,82.1,61.1,30.16,SSE,161,0.0,3.0,49,0.00,,,0.00,976.00,VWS V14.01,2013-05-26 16:46:00,
2013-05-26 11:51:00,82.2,59.4,30.16,South,188,3.0,6.0,46,0.00,,,0.00,986.00,VWS V14.01,2013-05-26 16:51:00,
2013-05-26 11:56:00,81.8,59.6,30.16,SSE,150,1.0,7.0,47,0.00,,,0.00,993.00,VWS V14.01,2013-05-26 16:56:00,
2013-05-26 12:01:00,81.3,59.8,30.16,South,169,0.0,1.0,48,0.00,,,0.00,995.00,VWS V14.01,2013-05-26 17:01:00,
2013-05-26 12:06:00,82.0,61.5,30.16,SSE,150,3.0,5.0,50,0.00,,,0.00,997.00,VWS V14.01,2013-05-26 17:06:00,
2013-05-26 12:11:00,82.4,60.8,30.16,SE,145,2.0,5.0,48,0.00,,,0.00,1004.00,VWS V14.01,2013-05-26 17:11:00,
2013-05-26 12:16:00,81.9,59.7,30.15,South,180,0.0,8.0,47,0.00,,,0.00,1009.00,VWS V14.01,2013-05-26 17:16:00,
2013-05-26 12:21:00,82.3,60.1,30.15,WSW,246,2.0,2.0,47,0.00,,,0.00,1016.00,VWS V14.01,2013-05-26 17:21:00,
2013-05-26 12:26:00,83.0,60.7,30.15,South,169,6.0,7.0,47,0.00,,,0.00,1005.00,VWS V14.01,2013-05-26 17:26:00,
2013-05-26 12:31:00,82.7,59.8,30.15,SE,142,2.0,3.0,46,0.00,,,0.00,1021.00,VWS V14.01,2013-05-26 17:31:00,
2013-05-26 12:36:00,82.3,59.5,30.15,SSW,192,2.0,6.0,46,0.00,,,0.00,1023.00,VWS V14.01,2013-05-26 17:36:00,
2013-05-26 12:41:00,82.2,59.4,30.14,South,175,0.0,1.0,46,0.00,,,0.00,1023.00,VWS V14.01,2013-05-26 17:41:00,
2013-05-26 12:46:00,82.5,60.8,30.14,ESE,123,3.0,6.0,48,0.00,,,0.00,1027.00,VWS V14.01,2013-05-26 17:46:00,
2013-05-26 12:51:00,82.5,59.7,30.14,ESE,113,3.0,3.0,46,0.00,,,0.00,1025.00,VWS V14.01,2013-05-26 17:51:00,
2013-05-26 12:56:00,82.4,60.2,30.14,SSE,165,2.0,3.0,47,0.00,,,0.00,1027.00,VWS V14.01,2013-05-26 17:56:00,
2013-05-26 13:01:00,82.5,60.8,30.14,SSW,196,1.0,3.0,48,0.00,,,0.00,1027.00,VWS V14.01,2013-05-26 18:01:00,
2013-05-26 13:06:00,82.6,60.9,30.14,SE,145,2.0,4.0,48,0.00,,,0.00,1034.00,VWS V14.01,2013-05-26 18:06:00,
2013-05-26 13:11:00,83.2,60.9,30.14,SSW,203,0.0,1.0,47,0.00,,,0.00,1028.00,VWS V14.01,2013-05-26 18:11:00,
2013-05-26 13:16:00,83.6,60.7,30.14,SSE,158,1.0,4.0,46,0.00,,,0.00,1034.00,VWS V14.01,2013-05-26 18:16:00,
2013-05-26 13:21:00,82.7,60.4,30.14,SE,130,3.0,5.0,47,0.00,,,0.00,1037.00,VWS V14.01,2013-05-26 18:21:00,
2013-05-26 13:26:00,83.0,60.7,30.14,SSE,156,5.0,6.0,47,0.00,,,0.00,1039.00,VWS V14.01,2013-05-26 18:26:00,
2013-05-26 13:31:00,83.3,58.5,30.14,South,180,1.0,4.0,43,0.00,,,0.00,1034.00,VWS V14.01,2013-05-26 18:31:00,
2013-05-26 13:36:00,83.5,59.9,30.14,SE,145,0.0,5.0,45,0.00,,,0.00,1032.00,VWS V14.01,2013-05-26 18:36:00,
2013-05-26 13:41:00,84.1,59.2,30.13,West,275,0.0,3.0,43,0.00,,,0.00,1034.00,VWS V14.01,2013-05-26 18:41:00,
2013-05-26 13:46:00,84.5,60.2,30.13,SSW,197,0.0,5.0,44,0.00,,,0.00,997.00,VWS V14.01,2013-05-26 18:46:00,
2013-05-26 13:51:00,84.3,58.7,30.13,SSW,210,3.0,6.0,42,0.00,,,0.00,1021.00,VWS V14.01,2013-05-26 18:51:00,
2013-05-26 13:56:00,83.9,59.7,30.13,ESE,110,3.0,8.0,44,0.00,,,0.00,1013.00,VWS V14.01,2013-05-26 18:56:00,
2013-05-26 14:01:00,83.4,59.8,30.13,SE,139,1.0,3.0,45,0.00,,,0.00,1000.00,VWS V14.01,2013-05-26 19:01:00,
2013-05-26 14:06:00,83.7,60.7,30.13,SSW,207,1.0,7.0,46,0.00,,,0.00,990.00,VWS V14.01,2013-05-26 19:06:00,
2013-05-26 14:11:00,84.2,59.3,30.13,South,173,1.0,6.0,43,0.00,,,0.00,998.00,VWS V14.01,2013-05-26 19:11:00,
2013-05-26 14:16:00,84.3,58.7,30.13,SSE,166,4.0,9.0,42,0.00,,,0.00,997.00,VWS V14.01,2013-05-26 19:16:00,
2013-05-26 14:21:00,83.2,57.1,30.13,South,184,0.0,6.0,41,0.00,,,0.00,1002.00,VWS V14.01,2013-05-26 19:21:00,
2013-05-26 14:26:00,83.6,58.8,30.13,South,169,1.0,6.0,43,0.00,,,0.00,997.00,VWS V14.01,2013-05-26 19:26:00,
2013-05-26 14:31:00,83.9,59.0,30.12,South,173,1.0,4.0,43,0.00,,,0.00,984.00,VWS V14.01,2013-05-26 19:31:00,
2013-05-26 14:36:00,83.8,59.6,30.12,ESE,113,3.0,10.0,44,0.00,,,0.00,972.00,VWS V14.01,2013-05-26 19:36:00,
2013-05-26 14:41:00,83.8,59.6,30.12,SE,125,1.0,4.0,44,0.00,,,0.00,960.00,VWS V14.01,2013-05-26 19:41:00,
2013-05-26 14:46:00,83.6,58.1,30.12,SSE,163,3.0,9.0,42,0.00,,,0.00,954.00,VWS V14.01,2013-05-26 19:46:00,
2013-05-26 14:51:00,83.4,58.6,30.12,SE,145,0.0,8.0,43,0.00,,,0.00,953.00,VWS V14.01,2013-05-26 19:51:00,
2013-05-26 14:56:00,83.4,57.9,30.12,SSE,150,3.0,8.0,42,0.00,,,0.00,946.00,VWS V14.01,2013-05-26 19:56:00,
2013-05-26 15:01:00,83.7,59.5,30.11,SSE,168,0.0,1.0,44,0.00,,,0.00,935.00,VWS V14.01,2013-05-26 20:01:00,
2013-05-26 15:06:00,84.0,57.1,30.11,South,178,5.0,8.0,40,0.00,,,0.00,930.00,VWS V14.01,2013-05-26 20:06:00,
2013-05-26 15:11:00,83.8,57.6,30.11,SSW,201,0.0,8.0,41,0.00,,,0.00,898.00,VWS V14.01,2013-05-26 20:11:00,
2013-05-26 15:16:00,84.0,58.5,30.11,SSW,194,0.0,8.0,42,0.00,,,0.00,904.00,VWS V14.01,2013-05-26 20:16:00,
2013-05-26 15:21:00,84.5,57.5,30.11,SSW,207,5.0,10.0,40,0.00,,,0.00,884.00,VWS V14.01,2013-05-26 20:21:00,
2013-05-26 15:26:00,84.3,58.1,30.11,West,265,4.0,10.0,41,0.00,,,0.00,896.00,VWS V14.01,2013-05-26 20:26:00,
2013-05-26 15:31:00,84.8,58.5,30.10,SSW,193,5.0,7.0,41,0.00,,,0.00,904.00,VWS V14.01,2013-05-26 20:31:00,
2013-05-26 15:36:00,84.2,58.6,30.10,SSE,165,5.0,8.0,42,0.00,,,0.00,879.00,VWS V14.01,2013-05-26 20:36:00,
2013-05-26 15:41:00,83.9,59.0,30.10,SSW,203,1.0,3.0,43,0.00,,,0.00,870.00,VWS V14.01,2013-05-26 20:41:00,
2013-05-26 15:46:00,84.5,58.2,30.09,SSW,211,0.0,8.0,41,0.00,,,0.00,830.00,VWS V14.01,2013-05-26 20:46:00,
2013-05-26 15:51:00,84.9,59.3,30.09,SE,143,2.0,7.0,42,0.00,,,0.00,835.00,VWS V14.01,2013-05-26 20:51:00,
2013-05-26 15:56:00,84.5,60.2,30.09,SSW,203,2.0,7.0,44,0.00,,,0.00,828.00,VWS V14.01,2013-05-26 20:56:00,
2013-05-26 16:01:00,84.6,58.3,30.09,South,172,3.0,7.0,41,0.00,,,0.00,846.00,VWS V14.01,2013-05-26 21:01:00,
2013-05-26 16:06:00,84.2,58.6,30.09,SSE,157,6.0,8.0,42,0.00,,,0.00,821.00,VWS V14.01,2013-05-26 21:06:00,
2013-05-26 16:11:00,84.5,59.6,30.09,South,181,4.0,4.0,43,0.00,,,0.00,803.00,VWS V14.01,2013-05-26 21:11:00,
2013-05-26 16:16:00,84.7,58.4,30.09,SSW,194,0.0,7.0,41,0.00,,,0.00,821.00,VWS V14.01,2013-05-26 21:16:00,
2013-05-26 16:21:00,85.1,60.1,30.08,WSW,257,3.0,4.0,43,0.00,,,0.00,640.00,VWS V14.01,2013-05-26 21:21:00,
2013-05-26 16:26:00,85.8,61.4,30.08,SSW,200,4.0,6.0,44,0.00,,,0.00,777.00,VWS V14.01,2013-05-26 21:26:00,
2013-05-26 16:31:00,85.6,59.9,30.08,SSE,167,0.0,4.0,42,0.00,,,0.00,775.00,VWS V14.01,2013-05-26 21:31:00,
2013-05-26 16:36:00,85.2,60.8,30.08,SSW,192,1.0,8.0,44,0.00,,,0.00,707.00,VWS V14.01,2013-05-26 21:36:00,
2013-05-26 16:41:00,85.1,60.8,30.08,South,180,0.0,5.0,44,0.00,,,0.00,731.00,VWS V14.01,2013-05-26 21:41:00,
2013-05-26 16:46:00,84.9,61.8,30.08,South,186,1.0,6.0,46,0.00,,,0.00,489.00,VWS V14.01,2013-05-26 21:46:00,
2013-05-26 16:51:00,84.4,62.6,30.08,SSW,196,4.0,5.0,48,0.00,,,0.00,287.00,VWS V14.01,2013-05-26 21:51:00,
2013-05-26 16:56:00,84.0,62.2,30.07,ESE,107,1.0,8.0,48,0.00,,,0.00,332.00,VWS V14.01,2013-05-26 21:56:00,
2013-05-26 17:01:00,83.5,62.3,30.07,WSW,248,4.0,7.0,49,0.00,,,0.00,533.00,VWS V14.01,2013-05-26 22:01:00,
2013-05-26 17:06:00,83.2,62.7,30.07,South,190,0.0,7.0,50,0.00,,,0.00,478.00,VWS V14.01,2013-05-26 22:06:00,
2013-05-26 17:11:00,83.1,62.0,30.07,South,178,4.0,9.0,49,0.00,,,0.00,582.00,VWS V14.01,2013-05-26 22:11:00,
2013-05-26 17:16:00,82.6,62.1,30.07,South,183,0.0,10.0,50,0.00,,,0.00,570.00,VWS V14.01,2013-05-26 22:16:00,
2013-05-26 17:21:00,83.0,62.5,30.07,WSW,246,1.0,4.0,50,0.00,,,0.00,540.00,VWS V14.01,2013-05-26 22:21:00,
2013-05-26 17:25:00,83.4,61.1,30.07,South,188,0.0,7.0,47,0.00,,,0.00,450.00,VWS V14.01,2013-05-26 22:25:00,
2013-05-26 17:30:00,83.4,60.5,30.06,SW,223,0.0,8.0,46,0.00,,,0.00,533.00,VWS V14.01,2013-05-26 22:30:00,
2013-05-26 17:35:00,82.7,56.6,30.06,SSE,168,7.0,9.0,41,0.00,,,0.00,533.00,VWS V14.01,2013-05-26 22:35:00,
2013-05-26 17:40:00,82.5,57.8,30.07,South,175,3.0,5.0,43,0.00,,,0.00,415.00,VWS V14.01,2013-05-26 22:40:00,
2013-05-26 17:45:00,82.2,58.1,30.06,SE,128,2.0,6.0,44,0.00,,,0.00,434.00,VWS V14.01,2013-05-26 22:45:00,
2013-05-26 17:50:00,81.6,57.6,30.06,SE,140,1.0,5.0,44,0.00,,,0.00,125.00,VWS V14.01,2013-05-26 22:50:00,
2013-05-26 17:55:00,81.1,57.8,30.06,SW,218,0.0,5.0,45,0.00,,,0.00,193.00,VWS V14.01,2013-05-26 22:55:00,
2013-05-26 18:00:00,81.1,58.4,30.05,South,173,1.0,3.0,46,0.00,,,0.00,457.00,VWS V14.01,2013-05-26 23:00:00,
2013-05-26 18:05:00,81.4,58.0,30.05,South,178,1.0,7.0,45,0.00,,,0.00,334.00,VWS V14.01,2013-05-26 23:05:00,
2013-05-26 18:10:00,81.4,59.3,30.06,ESE,103,4.0,5.0,47,0.00,,,0.00,399.00,VWS V14.01,2013-05-26 23:10:00,
2013-05-26 18:16:00,81.4,59.3,30.06,SSE,168,3.0,5.0,47,0.00,,,0.00,323.00,VWS V14.01,2013-05-26 23:16:00,
2013-05-26 18:20:00,81.4,58.7,30.06,South,176,2.0,2.0,46,0.00,,,0.00,257.00,VWS V14.01,2013-05-26 23:20:00,
2013-05-26 18:25:00,81.4,58.7,30.05,SSE,149,0.0,4.0,46,0.00,,,0.00,320.00,VWS V14.01,2013-05-26 23:25:00,
2013-05-26 18:30:00,81.5,59.3,30.05,ESE,111,0.0,2.0,47,0.00,,,0.00,336.00,VWS V14.01,2013-05-26 23:30:00,
2013-05-26 18:35:00,81.5,59.3,30.05,SE,142,1.0,3.0,47,0.00,,,0.00,183.00,VWS V14.01,2013-05-26 23:35:00,
2013-05-26 18:40:00,81.3,59.2,30.05,SE,142,0.0,0.0,47,0.00,,,0.00,329.00,VWS V14.01,2013-05-26 23:40:00,
2013-05-26 18:45:00,81.2,58.5,30.06,South,180,2.0,6.0,46,0.00,,,0.00,221.00,VWS V14.01,2013-05-26 23:45:00,
2013-05-26 18:50:00,81.1,59.0,30.06,ESE,122,3.0,5.0,47,0.00,,,0.00,192.00,VWS V14.01,2013-05-26 23:50:00,
2013-05-26 18:55:00,80.9,59.4,30.05,SE,138,0.0,5.0,48,0.00,,,0.00,162.00,VWS V14.01,2013-05-26 23:55:00,
2013-05-26 19:00:00,80.6,59.1,30.05,SE,132,0.0,1.0,48,0.00,,,0.00,134.00,VWS V14.01,2013-05-27 00:00:00,
2013-05-26 19:05:00,80.4,58.9,30.05,SE,136,0.0,5.0,48,0.00,,,0.00,100.00,VWS V14.01,2013-05-27 00:05:00,
2013-05-26 19:10:00,80.1,59.8,30.06,SE,136,0.0,1.0,50,0.00,,,0.00,67.00,VWS V14.01,2013-05-27 00:10:00,
2013-05-26 19:15:00,79.8,59.5,30.06,SE,136,0.0,2.0,50,0.00,,,0.00,49.00,VWS V14.01,2013-05-27 00:15:00,
2013-05-26 19:20:00,79.4,59.2,30.06,ESE,118,0.0,2.0,50,0.00,,,0.00,42.00,VWS V14.01,2013-05-27 00:20:00,
2013-05-26 19:25:00,79.2,59.0,30.06,ESE,119,1.0,2.0,50,0.00,,,0.00,40.00,VWS V14.01,2013-05-27 00:25:00,
2013-05-26 19:30:00,79.0,59.3,30.06,SE,127,1.0,1.0,51,0.00,,,0.00,37.00,VWS V14.01,2013-05-27 00:30:00,
2013-05-26 19:35:00,78.7,59.6,30.05,SE,129,1.0,2.0,52,0.00,,,0.00,44.00,VWS V14.01,2013-05-27 00:35:00,
2013-05-26 19:40:00,78.5,59.4,30.05,SE,126,0.0,2.0,52,0.00,,,0.00,33.00,VWS V14.01,2013-05-27 00:40:00,
2013-05-26 19:45:00,78.1,59.6,30.05,SE,126,2.0,2.0,53,0.00,,,0.00,25.00,VWS V14.01,2013-05-27 00:45:00,
2013-05-26 19:50:00,77.7,59.8,30.05,SE,126,2.0,3.0,54,0.00,,,0.00,19.00,VWS V14.01,2013-05-27 00:50:00,
2013-05-26 19:55:00,77.4,59.5,30.06,ESE,122,0.0,3.0,54,0.00,,,0.00,12.00,VWS V14.01,2013-05-27 00:55:00,
2013-05-26 20:00:00,77.1,59.2,30.06,ESE,121,0.0,2.0,54,0.00,,,0.00,7.00,VWS V14.01,2013-05-27 01:00:00,
2013-05-26 20:05:00,76.8,58.9,30.06,ESE,118,0.0,3.0,54,0.00,,,0.00,0.00,VWS V14.01,2013-05-27 01:05:00,
2013-05-26 20:10:00,76.4,59.1,30.05,ESE,117,2.0,2.0,55,0.00,,,0.00,0.00,VWS V14.01,2013-05-27 01:10:00,
2013-05-26 20:15:00,76.0,59.2,30.05,ESE,120,2.0,4.0,56,0.00,,,0.00,0.00,VWS V14.01,2013-05-27 01:15:00,
2013-05-26 20:20:00,75.6,58.8,30.05,ESE,119,3.0,3.0,56,0.00,,,0.00,0.00,VWS V14.01,2013-05-27 01:20:00,
2013-05-26 20:25:00,75.3,58.5,30.05,ESE,119,0.0,4.0,56,0.00,,,0.00,0.00,VWS V14.01,2013-05-27 01:25:00,
2013-05-26 20:30:00,75.0,58.8,30.05,ESE,119,2.0,2.0,57,0.00,,,0.00,0.00,VWS V14.01,2013-05-27 01:30:00,
2013-05-26 20:35:00,74.7,58.5,30.05,ESE,121,1.0,4.0,57,0.00,,,0.00,0.00,VWS V14.01,2013-05-27 01:35:00,
2013-05-26 20:40:00,74.4,58.2,30.05,ESE,121,0.0,1.0,57,0.00,,,0.00,0.00,VWS V14.01,2013-05-27 01:40:00,
2013-05-26 20:45:00,74.2,58.5,30.05,ESE,119,1.0,4.0,58,0.00,,,0.00,0.00,VWS V14.01,2013-05-27 01:45:00,
2013-05-26 20:50:00,74.0,58.8,30.05,ESE,117,2.0,3.0,59,0.00,,,0.00,0.00,VWS V14.01,2013-05-27 01:50:00,
2013-05-26 20:55:00,73.8,58.6,30.05,ESE,117,1.0,3.0,59,0.00,,,0.00,0.00,VWS V14.01,2013-05-27 01:55:00,
2013-05-26 21:00:00,73.8,58.6,30.05,ESE,118,1.0,3.0,59,0.00,,,0.00,0.00,VWS V14.01,2013-05-27 02:00:00,
2013-05-26 21:05:00,73.7,59.0,30.05,ESE,119,0.0,3.0,60,0.00,,,0.00,0.00,VWS V14.01,2013-05-27 02:05:00,
2013-05-26 21:10:00,73.5,58.8,30.05,ESE,119,0.0,0.0,60,0.00,,,0.00,0.00,VWS V14.01,2013-05-27 02:10:00,
2013-05-26 21:15:00,73.4,58.7,30.06,ESE,119,2.0,2.0,60,0.00,,,0.00,0.00,VWS V14.01,2013-05-27 02:15:00,
2013-05-26 21:20:00,73.3,59.0,30.06,ESE,118,0.0,1.0,61,0.00,,,0.00,0.00,VWS V14.01,2013-05-27 02:20:00,
2013-05-26 21:25:00,73.1,58.9,30.06,ESE,117,0.0,2.0,61,0.00,,,0.00,0.00,VWS V14.01,2013-05-27 02:25:00,
2013-05-26 21:30:00,73.0,59.2,30.05,ESE,118,0.0,0.0,62,0.00,,,0.00,0.00,VWS V14.01,2013-05-27 02:30:00,
2013-05-26 21:35:00,72.8,59.0,30.06,ESE,115,0.0,2.0,62,0.00,,,0.00,0.00,VWS V14.01,2013-05-27 02:35:00,
2013-05-26 21:40:00,72.7,59.4,30.06,ESE,119,0.0,0.0,63,0.00,,,0.00,0.00,VWS V14.01,2013-05-27 02:40:00,
2013-05-26 21:45:00,72.6,59.3,30.06,SSE,153,1.0,3.0,63,0.00,,,0.00,0.00,VWS V14.01,2013-05-27 02:45:00,
2013-05-26 21:50:00,72.5,59.2,30.06,SE,132,1.0,4.0,63,0.00,,,0.00,0.00,VWS V14.01,2013-05-27 02:50:00,
2013-05-26 21:55:00,72.5,59.2,30.06,SE,132,0.0,4.0,63,0.00,,,0.00,0.00,VWS V14.01,2013-05-27 02:55:00,
2013-05-26 22:00:00,72.4,59.1,30.06,SE,132,1.0,1.0,63,0.00,,,0.00,0.00,VWS V14.01,2013-05-27 03:00:00,
2013-05-26 22:05:00,72.3,59.5,30.06,SE,132,0.0,1.0,64,0.00,,,0.00,0.00,VWS V14.01,2013-05-27 03:05:00,
2013-05-26 22:10:00,72.0,59.6,30.06,SE,132,3.0,3.0,65,0.00,,,0.00,0.00,VWS V14.01,2013-05-27 03:10:00,
2013-05-26 22:15:00,71.7,59.3,30.06,SE,132,0.0,3.0,65,0.00,,,0.00,0.00,VWS V14.01,2013-05-27 03:15:00,
2013-05-26 22:20:00,71.4,59.0,30.06,SE,132,0.0,0.0,65,0.00,,,0.00,0.00,VWS V14.01,2013-05-27 03:20:00,
2013-05-26 22:25:00,71.3,59.4,30.06,SE,132,0.0,1.0,66,0.00,,,0.00,0.00,VWS V14.01,2013-05-27 03:25:00,
2013-05-26 22:30:00,71.2,59.3,30.06,SE,132,0.0,0.0,66,0.00,,,0.00,0.00,VWS V14.01,2013-05-27 03:30:00,
2013-05-26 22:35:00,71.0,59.5,30.06,SE,132,0.0,2.0,67,0.00,,,0.00,0.00,VWS V14.01,2013-05-27 03:35:00,
2013-05-26 22:40:00,71.0,59.5,30.06,SE,132,0.0,0.0,67,0.00,,,0.00,0.00,VWS V14.01,2013-05-27 03:40:00,
2013-05-26 22:45:00,70.8,59.3,30.06,SE,132,0.0,1.0,67,0.00,,,0.00,0.00,VWS V14.01,2013-05-27 03:45:00,
2013-05-26 22:50:00,70.7,59.2,30.07,SE,132,0.0,0.0,67,0.00,,,0.00,0.00,VWS V14.01,2013-05-27 03:50:00,
2013-05-26 22:55:00,70.6,59.5,30.06,SE,132,0.0,1.0,68,0.00,,,0.00,0.00,VWS V14.01,2013-05-27 03:55:00,
2013-05-26 23:00:00,70.5,59.4,30.06,SE,132,0.0,0.0,68,0.00,,,0.00,0.00,VWS V14.01,2013-05-27 04:00:00,
2013-05-26 23:01:00,70.5,59.4,30.06,SE,132,0.0,0.0,68,0.00,,,0.00,0.00,VWS V14.01,2013-05-27 04:01:00,
2013-05-26 23:06:00,70.3,59.7,30.06,SE,132,0.0,0.0,69,0.00,,,0.00,0.00,VWS V14.01,2013-05-27 04:06:00,
2013-05-26 23:11:00,70.2,59.6,30.06,SE,132,0.0,1.0,69,0.00,,,0.00,0.00,VWS V14.01,2013-05-27 04:11:00,
2013-05-26 23:16:00,70.1,59.5,30.05,SE,132,0.0,1.0,69,0.00,,,0.00,0.00,VWS V14.01,2013-05-27 04:16:00,
2013-05-26 23:21:00,70.1,59.9,30.05,SE,132,0.0,0.0,70,0.00,,,0.00,0.00,VWS V14.01,2013-05-27 04:21:00,
2013-05-26 23:26:00,70.1,59.9,30.06,SE,140,1.0,3.0,70,0.00,,,0.00,0.00,VWS V14.01,2013-05-27 04:26:00,
2013-05-26 23:31:00,70.1,59.9,30.05,SSE,149,2.0,2.0,70,0.00,,,0.00,0.00,VWS V14.01,2013-05-27 04:31:00,
2013-05-26 23:36:00,70.3,60.1,30.06,South,174,0.0,4.0,70,0.00,,,0.00,0.00,VWS V14.01,2013-05-27 04:36:00,
2013-05-26 23:41:00,70.3,60.1,30.06,South,169,0.0,2.0,70,0.00,,,0.00,0.00,VWS V14.01,2013-05-27 04:41:00,
2013-05-26 23:46:00,70.3,60.1,30.05,SSE,161,0.0,3.0,70,0.00,,,0.00,0.00,VWS V14.01,2013-05-27 04:46:00,
2013-05-26 23:51:00,70.3,60.1,30.06,SSE,161,1.0,3.0,70,0.00,,,0.00,0.00,VWS V14.01,2013-05-27 04:51:00,
2013-05-26 23:56:00,70.2,60.0,30.06,SSE,162,0.0,3.0,70,0.00,,,0.00,0.00,VWS V14.01,2013-05-27 04:56:00,